Location: Pasarilla del Rebollar
(40.6790°N, 5.0062°W)
Time: 12:02:01
(UTC+00:00)

ACS3 Solar Sail - Pass Details

Date: 22 April 2026
Orbit: 894 x 947 km, 97.2° (Epoch: 12 May)

Event Time Altitude Azimuth Distance (km) Brightness Sun altitude
Rises 02:59:37 0° 355° (N) 3,551 5.3 -25.4°
Reaches altitude 10° 03:02:50 10° 337° (NNW) 2,614 4.3 -24.9°
Maximum altitude 03:06:31 18° 297° (WNW) 2,121 3.4 -24.4°
Enters shadow 03:06:38 18° 296° (WNW) 2,122 3.4 -24.4°
